This is the latest recevied weather packets stored in our database for station/object KA3ZXO. If no packets are shown the sender has not sent any weather packets the latest 10 day(s).
| Time | Temp. | Humidity | Pressure | Rain* | Wind** | Luminosity | Snow |
|---|---|---|---|---|---|---|---|
| 1777911409 | 21.11° C | 36% | 1013.8 hPa | 0 mm | - | 67 W/m² | - |
| 1777910805 | 21.11° C | 35% | 1014 hPa | 0 mm | - | 42 W/m² | - |
| 1777910203 | 20.56° C | 35% | 1014.1 hPa | 0 mm | - | 35 W/m² | - |
| 1777909603 | 20.56° C | 35% | 1014.1 hPa | 0 mm | - | 76 W/m² | - |
| 1777908998 | 20° C | 37% | 1014.2 hPa | 0 mm | - | 32 W/m² | - |
| 1777908393 | 20° C | 36% | 1014.2 hPa | 0 mm | - | 168 W/m² | - |
| 1777907791 | 18.89° C | 39% | 1014.2 hPa | 0 mm | - | 30 W/m² | - |
| 1777907190 | 18.89° C | 40% | 1014.1 hPa | 0 mm | - | 39 W/m² | - |
| 1777906584 | 18.33° C | 42% | 1014.7 hPa | 0 mm | - | 89 W/m² | - |
| 1777905982 | 18.33° C | 44% | 1014.7 hPa | 0 mm | - | 54 W/m² | - |
| 1777905381 | 17.78° C | 46% | 1014.4 hPa | 0 mm | - | 194 W/m² | - |
| 1777904782 | 17.22° C | 44% | 1014.4 hPa | 0 mm | - | 26 W/m² | - |
| 1777904181 | 16.67° C | 47% | 1014.5 hPa | 0 mm | - | 26 W/m² | - |
| 1777903581 | 16.11° C | 51% | 1014.5 hPa | 0 mm | - | 25 W/m² | - |
| 1777902979 | 16.11° C | 51% | 1014.5 hPa | 0 mm | - | 25 W/m² | - |
| 1777902379 | 15.56° C | 50% | 1014.5 hPa | 0 mm | - | 24 W/m² | - |
| 1777901774 | 15° C | 53% | 1014.7 hPa | 0 mm | - | 24 W/m² | - |
| 1777901175 | 15° C | 52% | 1014.6 hPa | 0 mm | - | 23 W/m² | - |
| 1777900569 | 14.44° C | 52% | 1014.8 hPa | 0 mm | - | 23 W/m² | - |
| 1777899969 | 14.44° C | 54% | 1014.7 hPa | 0 mm | - | 22 W/m² | - |
| 1777899363 | 13.89° C | 55% | 1015 hPa | 0 mm | - | 21 W/m² | - |
| 1777898763 | 13.33° C | 58% | 1015.1 hPa | 0 mm | - | 20 W/m² | - |
| 1777898158 | 13.33° C | 59% | 1015.2 hPa | 0 mm | - | 20 W/m² | - |
| 1777897557 | 13.33° C | 60% | 1015.1 hPa | 0 mm | - | 18 W/m² | - |
| 1777896955 | 12.78° C | 60% | 1015.1 hPa | 0 mm | - | 17 W/m² | - |
* Rain latest hour (hover to see other rain measurements)
** Current wind speed in m/s (hover to see current wind gust speed)